Regional Weather Roundup
Issued by NWS Cleveland, OH

Home | Current Version | Previous Version | Graphics & Text | Print | Product List | Glossary On
Versions: 1 2 3 4 5 6 7 8 9 10 11 12 13 14 15 16 17 18 19 20 21 22 23 24 25 26 27 28 29 30 31 32 33 34 35 36 37 38 39 40 41 42 43 44 45 46 47 48 49 50
000
ASUS41 KCLE 200602
RWRCLE
OHIO REGIONAL WEATHER ROUNDUP
NATIONAL WEATHER SERVICE CLEVELAND, OH
200 AM EDT SAT SEP 20 2014

NOTE: "FAIR" INDICATES FEW OR NO CLOUDS BELOW 12,000 FEET WITH NO
SIGNIFICANT WEATHER AND/OR OBSTRUCTIONS TO VISIBILITY.

OHZ001>008-015>018-024>027-034-035-043-044-200700-
   NORTHWEST OHIO

CITY           SKY/WX    TMP DP  RH WIND       PRES   REMARKS
DEFIANCE       PTCLDY    51  46  83 S5        30.03F
FINDLAY        PTCLDY    52  46  80 S6        30.04F
TOLEDO EXPRESS PTCLDY    52  49  89 CALM      30.03F
TOLEDO EXEC    PTCLDY    52  47  83 S6        30.04F
LIMA           PTCLDY    55  47  74 S8        30.05F
$$

OHZ009>014-019>023-028>033-038-089-200700-
   NORTHEAST OHIO

CITY           SKY/WX    TMP DP  RH WIND       PRES   REMARKS
CLE-HOPKINS    PTCLDY    56  52  86 S5        30.08F
CLE-LAKEFRONT  PTCLDY    61  54  77 SE12      30.05F
CUY CO. ARPT   NOT AVBL
LORAIN-ELYRIA  PTCLDY    57  50  77 S8        30.06F
ASHTABULA      CLEAR     59  55  87 S10       30.10S
AKRON-CANTON   CLEAR     62  56  80 S12       30.10F
WOOSTER        PTCLDY    58  54  86 S5        30.10S
MANSFIELD      PTCLDY    58  52  80 S10       30.08F
YOUNGSTOWN     PTCLDY    60  56  86 S8        30.11F
$$

OHZ042-051>053-060>062-070>072-077>081-200700-
  SOUTHWEST OHIO

CITY           SKY/WX    TMP DP  RH WIND       PRES   REMARKS
CINC-COVINGTON PTCLDY    61  53  75 CALM      30.08F
CINC-LUNKEN    CLEAR     53  52  96 CALM      30.09F FOG
HAMILTON       PTCLDY    51  50  96 CALM      30.08F
DAYTON         PTCLDY    59  51  75 S7        30.08F
WRIGHT-PAT AFB CLEAR     56  50  81 SE2       30.07F
DAYTON GENERAL CLEAR     60  52  74 S5        30.07F
WILMINGTON     CLEAR     59  52  77 S5        30.09F
$$

OHZ036-037-039>041-045>050-054>059-063>069-073>076-082>088-200700-
  CENTRAL AND SOUTHEAST OHIO

CITY           SKY/WX    TMP DP  RH WIND       PRES   REMARKS
COLUMBUS       CLEAR     63  53  70 SE3       30.09S
OSU AIRPORT    PTCLDY    57  51  80 SE5       30.08F
BOLTON FIELD   CLEAR     53  51  92 CALM      30.09S
RICKENBACK AFB CLEAR     54  52  91 CALM      30.08F
NEWARK         CLEAR     51  49  92 CALM      30.09F FOG
MARION         PTCLDY    54  50  86 S9        30.07F
LANCASTER      CLEAR     62  58  86 SE6       30.10S
ZANESVILLE     CLEAR     61  56  83 SE7       30.11F
NEW PHILLY     CLEAR     61  57  87 SE3       30.12S
$$


USA.gov is the U.S. government's official web portal to all federal, state and local government web resources and services.